435  
ASUS41 KPHI 182112  
RWRPHI  
 
REGIONAL WEATHER ROUNDUP  
NATIONAL WEATHER SERVICE MOUNT HOLLY NJ  
500 PM EDT THU JUL 18 2019  
 
NOTE: "FAIR" INDICATES FEW OR NO CLOUDS BELOW 12,000 FEET WITH NO  
SIGNIFICANT WEATHER AND/OR S TO VISIBILITY
.  
 
* = STATION DOES NOT REPORT PRECIPITATION (E.G. RAIN, SNOW, ETC.)  
OR FOG.
 
 
NJZ015>026-182200-  
SOUTHERN NEW JERSEY  
 
CITY SKY/WX TMP DP RH WIND PRES REMARKS
 
POMONA CLOUDY 80 73 79 E14 29.87R THUNDER  
WILDWOOD* FAIR 89 77 67 S10 29.85F HX 101  
MILLVILLE FAIR 88 78 72 W5 29.85S HX 101  
WRIGHTSTOWN FAIR 76 76 100 CALM 29.84F  
MOUNT HOLLY N/A 78 76 93 CALM 29.85S  
TRENTON CLOUDY 78 76 93 S3 29.85F  
 

 
NJZ001>014-182200-  
NORTHERN NEW JERSEY  
 
CITY SKY/WX TMP DP RH WIND PRES REMARKS
 
SUSSEX CLOUDY 79 73 82 NE6 29.89S  
ANDOVER* N/A 81 74 79 CALM 29.89S  
MORRISTOWN PTSUNNY 81 77 89 NE7 29.87F  
NEWARK CLOUDY 82 75 79 N12 29.86F  
TETERBORO CLOUDY 78 73 84 E7 29.86F  
CALDWELL CLOUDY 80 75 84 E7 29.87F  
SOMERVILLE CLOUDY 82 75 79 CALM 29.84S  
ALLAIRE* LGT RAIN 77 75 93 NW5 29.89R  
TOMS RIVER* LGT RAIN N/A N/A N/A S3 29.86F  
 

 
PAZ043-044-047-054-055-060>062-066>071-182200-  
EASTERN PENNSYLVANIA  
 
CITY SKY/WX TMP DP RH WIND PRES REMARKS
 
PHILADELPHIA LGT RAIN 81 73 76 N5 29.86F  
NORTH PHILA LGT RAIN 83 76 79 SE6 29.87S HX 91  
BLUE BELL* RAIN 78 76 94 CALM 29.86F  
DOYLESTOWN LGT RAIN 78 74 87 CALM 29.87S  
QUAKERTOWN* SUNNY 81 77 89 CALM 29.88S  
PERKASIE* MOCLDY 77 77 100 S3 29.89S  
POTTSTOWN PTSUNNY 75 75 100 VRB3 29.87F  
LANCASTER FAIR 87 75 67 NW5 29.86F HX 96  
COATESVILLE FAIR 79 77 94 CALM 29.89F  
WEST CHESTER FAIR 75 73 94 CALM 29.87F  
READING PTSUNNY 84 77 79 S6 29.85S HX 94  
ALLENTOWN PTSUNNY 86 74 67 VRB3 29.86F HX 94  
QN CITY/ALNTWN FAIR 86 77 74 SE5 29.87F HX 97  
MOUNT POCONO CLOUDY 73 71 93 E6 29.96S  
HAZLETON N/A N/A N/A N/A MISG N/A  
LEHIGHTON CLOUDY 82 73 74 CALM 29.88S  
WILKES BARRE CLOUDY 83 72 69 NE5 29.90S  
 

 
DEZALL-MDZ008-012-015-019-020-182200-  
DELAWARE AND EASTERN MARYLAND  
 
CITY SKY/WX TMP DP RH WIND PRES REMARKS
 
WILMINGTON FAIR 83 76 79 NW8 29.85F HX 91  
DOVER FAIR 91 74 56 SW12 29.83F HX 100  
CHESWOLD PTCLDY 90 75 62 SW12 29.84S HX 100  
GEORGETOWN FAIR 91 76 61 SW7 29.85F HX 103  
EASTON MOSUNNY 93 75 55 SW7 29.89S HX 104  
STEVENSVILLE PTSUNNY 91 77 62 S6 29.84F HX 105  
ABERDEEN LGT RAIN 79 77 94 CALM 29.85 FOG  
PATUXENT PTSUNNY 93 74 53 W8 29.85 HX 103  
OCEAN CITY FAIR 88 77 69 S9 29.86F HX 100  
WALLOPS ISLAND FAIR 87 78 74 S15 29.86F HX 100  
CAMBRIDGE PTSUNNY 90 75 62 VRB5 29.85S HX 100  
SALISBURY FAIR 90 75 61 SW12 29.85F HX 100  
 

 
PAZ001-021-NYZ056-072-MDZ011-DCZ001-182200-  
OTHER NEARBY LOCATIONS  
 
CITY SKY/WX TMP DP RH WIND PRES REMARKS
 
HARRISBURG FAIR 90 73 57 W7 29.84F HX 98  
STATE COLLEGE MOSUNNY 88 68 51 W12 29.92S HX 91  
WILLIAMSPORT FAIR 88 70 55 CALM 29.85S HX 93  
BINGHAMTON PTSUNNY 80 69 69 CALM 29.93F  
NEW YORK CITY CLOUDY 78 73 84 VRB6 29.90F  
BALTIMORE PTSUNNY 89 74 60 NW6G20 29.85S HX 98  
WASHINGTON DC PTSUNNY 92 71 50 NW8 29.87R HX 98  
 

 
 
 
CLICK HERE TO GO TO PREVIOUS BULLETINS.

The Nexlab PA Page
The Nexlab NJ Page
The Nexlab DE Page
The Nexlab MD Page Main Text Page